Location: Bailleul
(50.3375°N, 2.8513°E)
Time: 03:59:13
(UTC+00:00)

Cosmos 2208 Rocket - Pass Details

Date: 19 April 2021
Orbit: 754 x 806 km, 74.0° (Epoch: 09 May)

Event Time Altitude Azimuth Distance (km) Brightness Sun altitude
Rises 22:22:43 0° 337° (NNW) 3,267 8.6 -25.4°
Reaches altitude 10° 22:25:07 10° 341° (NNW) 2,343 7.6 -25.6°
Maximum altitude 22:30:25 64° 63° (ENE) 875 4.2 -25.9°
Enters shadow 22:30:48 62° 86° (E) 889 4.1 -25.9°
